• In Russia
  • List of Countries
  • For 7 days
  • Water Temperature
  • Satellite Maps
  • Weather Map
  • Weather Widgets
  • user-avatar
    Login

    Hourly Weather Quito

    Today, 18 October, Wednesday

    Time Temperature Precipitation Wind Pressure Humidity
    00:00 +21°C° 0 mm 3 mps 622 mmHg 66%
    01:00 +21°C° 0 mm 3 mps 622 mmHg 72%
    02:00 +20°C° 0 mm 2 mps 622 mmHg 73%
    03:00 +20°C° 0 mm 2 mps 622 mmHg 74%
    04:00 +20°C° 0 mm 2 mps 622 mmHg 75%
    05:00 +20°C° 0.1 mm 2 mps 623 mmHg 74%
    06:00 +21°C° 0.1 mm 2 mps 623 mmHg 73%
    07:00 +22°C° 0.1 mm 1 mps 624 mmHg 71%
    08:00 +24°C° 0.2 mm 1 mps 624 mmHg 63%
    09:00 +26°C° 0.2 mm 1 mps 625 mmHg 54%
    10:00 +28°C° 0.2 mm 1 mps 626 mmHg 45%
    11:00 +29°C° 0 mm 1 mps 625 mmHg 41%
    12:00 +30°C° 0 mm 1 mps 625 mmHg 38%
    13:00 +31°C° 0 mm 2 mps 625 mmHg 35%
    14:00 +30°C° 0 mm 1 mps 624 mmHg 36%
    15:00 +30°C° 0 mm 1 mps 623 mmHg 38%
    16:00 +29°C° 0 mm 1 mps 623 mmHg 39%
    17:00 +27°C° 0 mm 1 mps 623 mmHg 43%
    18:00 +26°C° 0 mm 1 mps 623 mmHg 46%
    19:00 +24°C° 0 mm 1 mps 622 mmHg 50%
    20:00 +24°C° 0 mm 1 mps 623 mmHg 51%
    21:00 +24°C° 0 mm 1 mps 623 mmHg 53%
    22:00 +23°C° 0 mm 1 mps 623 mmHg 54%
    23:00 +22°C° 0.1 mm 1 mps 623 mmHg 59%

    Tomorrow, 19 October, Thursday

    Time Temperature Precipitation Wind Pressure Humidity
    00:00 +22°C° 0.1 mm 1 mps 623 mmHg 63%
    01:00 +20°C° 0.1 mm 2 mps 622 mmHg 68%
    02:00 +20°C° 0 mm 2 mps 622 mmHg 70%
    03:00 +19°C° 0 mm 2 mps 622 mmHg 72%
    04:00 +19°C° 0 mm 2 mps 622 mmHg 75%
    05:00 +20°C° 0 mm 2 mps 622 mmHg 71%
    06:00 +21°C° 0 mm 2 mps 623 mmHg 67%
    07:00 +23°C° 0 mm 2 mps 624 mmHg 64%
    08:00 +25°C° 0 mm 2 mps 624 mmHg 53%
    09:00 +28°C° 0 mm 3 mps 625 mmHg 42%
    10:00 +31°C° 0 mm 3 mps 626 mmHg 31%
    11:00 +32°C° 0 mm 2 mps 626 mmHg 28%
    12:00 +34°C° 0 mm 1 mps 625 mmHg 24%
    13:00 +36°C° 0 mm 1 mps 625 mmHg 21%
    14:00 +35°C° 0 mm 1 mps 624 mmHg 23%
    15:00 +33°C° 0 mm 1 mps 623 mmHg 25%
    16:00 +30°C° 0 mm 0 mps 623 mmHg 27%
    17:00 +30°C° 0 mm 1 mps 622 mmHg 30%
    18:00 +28°C° 0 mm 1 mps 622 mmHg 33%
    19:00 +26°C° 0 mm 1 mps 622 mmHg 36%
    20:00 +25°C° 0 mm 1 mps 622 mmHg 40%
    21:00 +24°C° 0 mm 2 mps 622 mmHg 43%
    22:00 +24°C° 0 mm 2 mps 623 mmHg 46%
    23:00 +23°C° 0 mm 2 mps 622 mmHg 51%

    Day after tomorrow, 20 October, Friday

    Time Temperature Precipitation Wind Pressure Humidity
    00:00 +21°C° 0 mm 2 mps 622 mmHg 57%
    01:00 +20°C° 0 mm 2 mps 621 mmHg 62%
    02:00 +20°C° 0 mm 2 mps 621 mmHg 64%
    03:00 +20°C° 0 mm 1 mps 621 mmHg 66%
    04:00 +20°C° 0 mm 1 mps 621 mmHg 68%
    05:00 +21°C° 0 mm 1 mps 622 mmHg 66%
    06:00 +22°C° 0 mm 1 mps 623 mmHg 64%
    07:00 +22°C° 0 mm 1 mps 624 mmHg 61%
    08:00 +25°C° 0 mm 1 mps 625 mmHg 50%
    09:00 +27°C° 0 mm 2 mps 626 mmHg 39%
    10:00 +30°C° 0 mm 2 mps 627 mmHg 28%
    11:00 +32°C° 0 mm 2 mps 626 mmHg 26%
    12:00 +34°C° 0 mm 1 mps 626 mmHg 23%
    13:00 +35°C° 0 mm 1 mps 626 mmHg 20%
    14:00 +34°C° 0 mm 1 mps 625 mmHg 22%
    15:00 +33°C° 0 mm 1 mps 624 mmHg 23%
    16:00 +32°C° 0 mm 1 mps 623 mmHg 24%
    17:00 +30°C° 0 mm 1 mps 623 mmHg 27%
    18:00 +28°C° 0 mm 1 mps 623 mmHg 30%
    19:00 +26°C° 0 mm 1 mps 623 mmHg 33%
    20:00 +25°C° 0 mm 1 mps 623 mmHg 38%
    21:00 +24°C° 0 mm 1 mps 623 mmHg 42%
    22:00 +23°C° 0 mm 2 mps 624 mmHg 46%
    23:00 +21°C° 0.1 mm 2 mps 624 mmHg 56%

    21 October, Saturday

    Time Temperature Precipitation Wind Pressure Humidity
    00:00 +20°C° 0.1 mm 3 mps 623 mmHg 66%
    01:00 +20°C° 0.1 mm 3 mps 623 mmHg 76%
    02:00 +19°C° 0.1 mm 3 mps 623 mmHg 78%
    03:00 +19°C° 0.1 mm 2 mps 623 mmHg 80%
    04:00 +19°C° 0.1 mm 2 mps 623 mmHg 83%
    05:00 +19°C° 0 mm 2 mps 623 mmHg 78%
    06:00 +20°C° 0 mm 2 mps 624 mmHg 73%
    07:00 +21°C° 0 mm 2 mps 624 mmHg 68%
    08:00 +25°C° 0 mm 2 mps 625 mmHg 56%
    09:00 +28°C° 0 mm 2 mps 625 mmHg 44%
    10:00 +31°C° 0 mm 2 mps 626 mmHg 31%
    11:00 +32°C° 0 mm 2 mps 626 mmHg 29%
    12:00 +34°C° 0 mm 1 mps 625 mmHg 26%
    13:00 +35°C° 0 mm 1 mps 625 mmHg 23%
    14:00 +34°C° 0 mm 1 mps 624 mmHg 26%
    15:00 +32°C° 0 mm 2 mps 624 mmHg 30%
    16:00 +31°C° 0 mm 2 mps 623 mmHg 33%
    17:00 +28°C° 0.2 mm 2 mps 623 mmHg 41%
    18:00 +26°C° 0.2 mm 3 mps 623 mmHg 49%
    19:00 +24°C° 0.2 mm 3 mps 623 mmHg 57%
    20:00 +22°C° 0.7 mm 3 mps 624 mmHg 63%
    21:00 +22°C° 0.7 mm 3 mps 624 mmHg 68%
    22:00 +21°C° 0.7 mm 3 mps 624 mmHg 74%
    23:00 +20°C° 0.7 mm 3 mps 624 mmHg 77%

    22 October, Sunday

    Time Temperature Precipitation Wind Pressure Humidity
    00:00 +20°C° 0.7 mm 2 mps 623 mmHg 81%
    01:00 +19°C° 0.7 mm 2 mps 623 mmHg 84%
    02:00 +19°C° 0 mm 2 mps 623 mmHg 84%
    03:00 +19°C° 0 mm 2 mps 623 mmHg 84%
    04:00 +20°C° 0 mm 1 mps 623 mmHg 84%
    05:00 +20°C° 0 mm 1 mps 623 mmHg 81%
    06:00 +21°C° 0 mm 1 mps 624 mmHg 79%
    07:00 +22°C° 0 mm 1 mps 625 mmHg 76%
    08:00 +25°C° 0 mm 1 mps 625 mmHg 63%
    09:00 +27°C° 0 mm 1 mps 626 mmHg 50%
    10:00 +30°C° 0 mm 2 mps 627 mmHg 37%
    11:00 +31°C° 0 mm 2 mps 626 mmHg 35%
    12:00 +31°C° 0 mm 2 mps 625 mmHg 33%
    13:00 +31°C° 0 mm 2 mps 625 mmHg 31%
    14:00 +31°C° 0 mm 2 mps 624 mmHg 33%
    15:00 +30°C° 0 mm 2 mps 624 mmHg 35%
    16:00 +29°C° 0 mm 2 mps 624 mmHg 37%
    17:00 +28°C° 0 mm 2 mps 624 mmHg 42%
    18:00 +26°C° 0 mm 1 mps 624 mmHg 47%
    19:00 +24°C° 0 mm 1 mps 624 mmHg 52%
    20:00 +23°C° 0.6 mm 1 mps 624 mmHg 61%
    21:00 +22°C° 0.6 mm 1 mps 624 mmHg 69%
    22:00 +19°C° 0.6 mm 2 mps 624 mmHg 78%
    23:00 +20°C° 0.5 mm 1 mps 623 mmHg 80%

    23 October, Monday

    Time Temperature Precipitation Wind Pressure Humidity
    00:00 +20°C° 0.5 mm 1 mps 623 mmHg 82%
    01:00 +20°C° 0.5 mm 1 mps 622 mmHg 84%
    02:00 +20°C° 0 mm 1 mps 622 mmHg 83%
    03:00 +20°C° 0 mm 1 mps 622 mmHg 81%
    04:00 +20°C° 0 mm 1 mps 622 mmHg 80%
    05:00 +21°C° 0 mm 1 mps 622 mmHg 75%
    06:00 +22°C° 0 mm 1 mps 623 mmHg 71%
    07:00 +23°C° 0 mm 1 mps 624 mmHg 67%
    08:00 +26°C° 0 mm 1 mps 625 mmHg 56%
    09:00 +28°C° 0 mm 1 mps 625 mmHg 46%
    10:00 +31°C° 0 mm 1 mps 626 mmHg 36%
    11:00 +30°C° 0 mm 1 mps 625 mmHg 38%
    12:00 +30°C° 0 mm 1 mps 624 mmHg 40%
    13:00 +29°C° 0 mm 1 mps 623 mmHg 42%
    14:00 +28°C° 1.3 mm 2 mps 623 mmHg 49%
    15:00 +26°C° 1.3 mm 3 mps 622 mmHg 55%
    16:00 +25°C° 1.3 mm 4 mps 621 mmHg 62%
    17:00 +22°C° 2.1 mm 3 mps 622 mmHg 69%
    18:00 +21°C° 2.1 mm 3 mps 622 mmHg 76%
    19:00 +19°C° 2.1 mm 2 mps 622 mmHg 83%
    20:00 +19°C° 0.9 mm 2 mps 622 mmHg 83%
    21:00 +19°C° 0.9 mm 2 mps 622 mmHg 84%
    22:00 +18°C° 0.9 mm 2 mps 622 mmHg 85%
    23:00 +20°C° 0.2 mm 1 mps 622 mmHg 83%
    Show more